Simultaneous Nadir Overpasses (SNOs) Predictions

Prediction of SNOs between LANDSAT-8 and NOAA-19 Satellite Orbit:

Table of predicted SNOs for the next 14.0 days since TLE Epoch: 5/7/2023
Index Date (LANDSAT-8) Time (LANDSAT-8) Lat,Lon (LANDSAT-8) SZA (LANDSAT-8 ) Date (NOAA-19) Time (NOAA-19) Lat,Lon (NOAA-19) SZA (NOAA-19 ) Distance(km) Time Diff (sec)
1 05/08/2023 01:01:34 80.94,-158.68 65.91 05/08/2023 01:01:38 80.94,-158.84 65.89 2.82 4
2 05/10/2023 06:35:16 -80.94, -62.23 114.71 05/10/2023 06:34:17 -80.94, -62.42 114.75 3.33 59
3 05/10/2023 07:24:42 80.94, 105.46 65.29 05/10/2023 07:25:10 80.94, 105.32 65.30 2.34 28
4 05/12/2023 12:58:23 -80.95,-157.88 115.26 05/12/2023 12:57:48 -80.94,-157.98 115.29 1.92 35
5 05/12/2023 13:47:49 80.95, 9.79 64.74 05/12/2023 13:48:41 80.94, 9.79 64.75 0.59 52
6 05/14/2023 19:21:30 -80.95, 106.32 115.82 05/14/2023 19:21:19 -80.94, 106.36 115.82 0.76 11
7 05/17/2023 01:44:37 -80.93, 10.37 116.37 05/17/2023 01:44:51 -80.94, 10.24 116.38 2.55 14
8 05/19/2023 07:18:16 80.93, 106.96 63.14 05/19/2023 07:17:18 80.94, 107.10 63.13 2.59 58



Historial Predications of SNOs between LANDSAT-8 and NOAA-19
